When you browse on this site, cookies collect data to enhance your experience and personalize the content and advertising you see.
Visit our Privacy Policy to learn more. By continuing to use the site, you agree to this use of cookies and data.

Hourly Weather Sergino

Today, 13 July, Monday

Time Temperature Precipitation Wind Pressure Humidity
00:00 +12°C° 0 mm 1 mps 746 mmHg 96%
01:00 +12°C° 0 mm 1 mps 746 mmHg 96%
02:00 +12°C° 0 mm 1 mps 746 mmHg 96%
03:00 +12°C° 0 mm 1 mps 746 mmHg 96%
04:00 +13°C° 0 mm 1 mps 746 mmHg 95%
05:00 +13°C° 0 mm 1 mps 746 mmHg 95%
06:00 +13°C° 0 mm 1 mps 746 mmHg 94%
07:00 +14°C° 0 mm 1 mps 746 mmHg 94%
08:00 +14°C° 0 mm 1 mps 745 mmHg 93%
09:00 +14°C° 0.6 mm 1 mps 745 mmHg 94%
10:00 +14°C° 0.6 mm 2 mps 745 mmHg 95%
11:00 +14°C° 0.6 mm 2 mps 745 mmHg 95%
12:00 +14°C° 0.4 mm 2 mps 745 mmHg 95%
13:00 +14°C° 0.4 mm 2 mps 745 mmHg 94%
14:00 +14°C° 0.4 mm 2 mps 744 mmHg 93%
15:00 +14°C° 0.3 mm 1 mps 744 mmHg 94%
16:00 +14°C° 0.3 mm 1 mps 744 mmHg 96%
17:00 +14°C° 0.3 mm 1 mps 743 mmHg 97%
18:00 +14°C° 0.2 mm 1 mps 743 mmHg 97%
19:00 +14°C° 0.2 mm 1 mps 743 mmHg 97%
20:00 +13°C° 0.2 mm 1 mps 743 mmHg 97%
21:00 +13°C° 0 mm 1 mps 743 mmHg 97%
22:00 +13°C° 0 mm 1 mps 743 mmHg 98%
23:00 +13°C° 0 mm 1 mps 743 mmHg 98%

Tomorrow, 14 July, Tuesday

Time Temperature Precipitation Wind Pressure Humidity
00:00 +12°C° 0 mm 1 mps 743 mmHg 98%
01:00 +12°C° 0 mm 2 mps 743 mmHg 98%
02:00 +12°C° 0 mm 2 mps 743 mmHg 98%
03:00 +12°C° 0 mm 2 mps 743 mmHg 97%
04:00 +12°C° 0 mm 2 mps 743 mmHg 97%
05:00 +12°C° 0 mm 2 mps 743 mmHg 97%
06:00 +14°C° 0 mm 2 mps 743 mmHg 90%
07:00 +14°C° 0 mm 3 mps 743 mmHg 83%
08:00 +17°C° 0 mm 3 mps 743 mmHg 76%
09:00 +18°C° 0 mm 3 mps 743 mmHg 69%
10:00 +20°C° 0 mm 3 mps 743 mmHg 61%
11:00 +21°C° 0 mm 4 mps 743 mmHg 53%
12:00 +22°C° 0 mm 4 mps 743 mmHg 51%
13:00 +22°C° 0 mm 4 mps 743 mmHg 50%
14:00 +23°C° 0 mm 4 mps 743 mmHg 49%
15:00 +22°C° 0 mm 3 mps 742 mmHg 52%
16:00 +22°C° 0 mm 3 mps 742 mmHg 54%
17:00 +22°C° 0 mm 3 mps 742 mmHg 57%
18:00 +20°C° 0 mm 3 mps 742 mmHg 61%
19:00 +19°C° 0 mm 3 mps 741 mmHg 65%
20:00 +18°C° 0 mm 3 mps 741 mmHg 69%
21:00 +17°C° 0 mm 4 mps 741 mmHg 67%
22:00 +17°C° 0 mm 4 mps 740 mmHg 65%
23:00 +16°C° 0 mm 5 mps 739 mmHg 63%

Day after tomorrow, 15 July, Wednesday

Time Temperature Precipitation Wind Pressure Humidity
00:00 +15°C° 0.4 mm 5 mps 739 mmHg 69%
01:00 +14°C° 0.4 mm 5 mps 739 mmHg 75%
02:00 +13°C° 0.4 mm 4 mps 739 mmHg 81%
03:00 +13°C° 1.7 mm 4 mps 739 mmHg 86%
04:00 +12°C° 1.7 mm 5 mps 739 mmHg 91%
05:00 +12°C° 1.7 mm 5 mps 739 mmHg 95%
06:00 +12°C° 1 mm 5 mps 739 mmHg 95%
07:00 +12°C° 1 mm 5 mps 739 mmHg 96%
08:00 +12°C° 1 mm 5 mps 739 mmHg 96%
09:00 +13°C° 0.2 mm 5 mps 739 mmHg 95%
10:00 +13°C° 0.2 mm 5 mps 739 mmHg 94%
11:00 +13°C° 0.2 mm 5 mps 739 mmHg 93%
12:00 +13°C° 0.1 mm 5 mps 739 mmHg 92%
13:00 +14°C° 0.1 mm 5 mps 739 mmHg 91%
14:00 +14°C° 0.1 mm 5 mps 739 mmHg 90%
15:00 +14°C° 0.2 mm 5 mps 739 mmHg 89%
16:00 +13°C° 0.2 mm 5 mps 739 mmHg 89%
17:00 +13°C° 0.2 mm 5 mps 739 mmHg 88%
18:00 +13°C° 0.6 mm 5 mps 739 mmHg 90%
19:00 +13°C° 0.6 mm 5 mps 739 mmHg 93%
20:00 +13°C° 0.6 mm 5 mps 739 mmHg 95%
21:00 +13°C° 0.1 mm 5 mps 739 mmHg 94%
22:00 +13°C° 0.1 mm 4 mps 739 mmHg 93%
23:00 +13°C° 0.1 mm 4 mps 739 mmHg 93%

16 July, Thursday

Time Temperature Precipitation Wind Pressure Humidity
00:00 +13°C° 0 mm 4 mps 739 mmHg 92%
01:00 +13°C° 0 mm 4 mps 738 mmHg 91%
02:00 +13°C° 0 mm 4 mps 738 mmHg 90%
03:00 +13°C° 0.1 mm 4 mps 738 mmHg 90%
04:00 +13°C° 0.1 mm 5 mps 738 mmHg 91%
05:00 +13°C° 0.1 mm 5 mps 738 mmHg 92%
06:00 +13°C° 0.5 mm 5 mps 738 mmHg 93%
07:00 +13°C° 0.5 mm 5 mps 738 mmHg 94%
08:00 +13°C° 0.5 mm 5 mps 738 mmHg 95%
09:00 +13°C° 0.6 mm 5 mps 738 mmHg 95%
10:00 +13°C° 0.6 mm 5 mps 739 mmHg 94%
11:00 +14°C° 0.6 mm 5 mps 739 mmHg 93%
12:00 +14°C° 0.9 mm 5 mps 739 mmHg 94%
13:00 +13°C° 0.9 mm 5 mps 739 mmHg 95%
14:00 +13°C° 0.9 mm 4 mps 740 mmHg 96%
15:00 +13°C° 0.8 mm 4 mps 740 mmHg 96%
16:00 +13°C° 0.8 mm 4 mps 740 mmHg 96%
17:00 +13°C° 0.8 mm 4 mps 740 mmHg 95%
18:00 +13°C° 0.2 mm 4 mps 740 mmHg 96%
19:00 +12°C° 0.2 mm 4 mps 740 mmHg 96%
20:00 +12°C° 0.2 mm 4 mps 741 mmHg 97%
21:00 +12°C° 0 mm 4 mps 741 mmHg 97%
22:00 +12°C° 0 mm 3 mps 741 mmHg 97%
23:00 +12°C° 0 mm 3 mps 741 mmHg 97%

17 July, Friday

Time Temperature Precipitation Wind Pressure Humidity
00:00 +12°C° 0 mm 3 mps 741 mmHg 97%
01:00 +12°C° 0 mm 3 mps 741 mmHg 97%
02:00 +13°C° 0 mm 3 mps 741 mmHg 97%
03:00 +13°C° 0.1 mm 3 mps 741 mmHg 97%
04:00 +13°C° 0.1 mm 3 mps 741 mmHg 97%
05:00 +13°C° 0.1 mm 3 mps 741 mmHg 97%
06:00 +13°C° 0.1 mm 3 mps 741 mmHg 97%
07:00 +13°C° 0.1 mm 3 mps 741 mmHg 96%
08:00 +13°C° 0.1 mm 3 mps 741 mmHg 96%
09:00 +13°C° 0 mm 3 mps 742 mmHg 94%
10:00 +14°C° 0 mm 3 mps 742 mmHg 93%
11:00 +14°C° 0 mm 3 mps 742 mmHg 92%
12:00 +14°C° 0 mm 3 mps 742 mmHg 90%
13:00 +14°C° 0 mm 3 mps 743 mmHg 88%
14:00 +14°C° 0 mm 3 mps 743 mmHg 87%
15:00 +14°C° 0 mm 3 mps 743 mmHg 85%
16:00 +14°C° 0 mm 3 mps 743 mmHg 84%
17:00 +14°C° 0 mm 3 mps 744 mmHg 83%
18:00 +13°C° 0 mm 3 mps 744 mmHg 84%
19:00 +13°C° 0 mm 3 mps 744 mmHg 85%
20:00 +12°C° 0 mm 3 mps 744 mmHg 86%
21:00 +12°C° 0 mm 3 mps 744 mmHg 87%
22:00 +12°C° 0 mm 3 mps 744 mmHg 88%
23:00 +11°C° 0 mm 3 mps 744 mmHg 88%

18 July, Saturday

Time Temperature Precipitation Wind Pressure Humidity
00:00 +11°C° 0 mm 3 mps 744 mmHg 89%
01:00 +11°C° 0 mm 3 mps 745 mmHg 90%
02:00 +10°C° 0 mm 2 mps 745 mmHg 91%
03:00 +10°C° 0.1 mm 3 mps 745 mmHg 92%
04:00 +10°C° 0.1 mm 3 mps 745 mmHg 92%
05:00 +10°C° 0.1 mm 3 mps 745 mmHg 93%
06:00 +11°C° 0 mm 3 mps 745 mmHg 92%
07:00 +11°C° 0 mm 3 mps 745 mmHg 91%
08:00 +11°C° 0 mm 3 mps 745 mmHg 90%
09:00 +12°C° 0 mm 3 mps 745 mmHg 88%
10:00 +12°C° 0 mm 3 mps 745 mmHg 85%
11:00 +13°C° 0 mm 3 mps 745 mmHg 83%
12:00 +13°C° 0 mm 3 mps 746 mmHg 81%
13:00 +15°C° 0 mm 2 mps 746 mmHg 80%
14:00 +15°C° 0 mm 2 mps 746 mmHg 78%
15:00 +15°C° 0 mm 2 mps 746 mmHg 75%
16:00 +16°C° 0 mm 2 mps 746 mmHg 72%
17:00 +16°C° 0 mm 2 mps 746 mmHg 69%
18:00 +15°C° 0 mm 2 mps 746 mmHg 71%
19:00 +14°C° 0 mm 2 mps 746 mmHg 73%
20:00 +13°C° 0 mm 2 mps 746 mmHg 74%
21:00 +13°C° 0 mm 2 mps 746 mmHg 74%
22:00 +13°C° 0 mm 2 mps 746 mmHg 74%
23:00 +13°C° 0 mm 2 mps 747 mmHg 73%
Show more